Weather History for KISP - October, 2012

Change the Weather History Date:

Tuesday, October 16, 2012

  Actual Average Record
Temperature  
Mean Temperature 52 °F 54 °F  
Max Temperature 61 °F 63 °F 74 °F (2008)
Min Temperature 43 °F 45 °F 36 °F (2006)
Degree Days  
Heating Degree Days 13 11  
Month to date heating degree days 109 141  
Since 1 July heating degree days 162 218  
Cooling Degree Days 0 0  
Month to date cooling degree days 15 9  
Year to date cooling degree days 993 786  
Growing Degree Days 4 (Base 50)    
Moisture  
Dew Point 42 °F    
Average Humidity 60    
Maximum Humidity 80    
Minimum Humidity 39    
Precipitation  
Precipitation T in 0.12 in 1.02 in (2014)
Month to date precipitation 0.53 1.97  
Year to date precipitation 35.13 36.69  
Snow  
Snow 0.00 in 0.00 in - ()
Month to date snowfall 0.0 0.0  
Since 1 July snowfall 0.0 0.0  
Snow Depth 0.00 in    
Sea Level Pressure  
Sea Level Pressure 29.74 in    
Wind  
Wind Speed 11 mph (NW)    
Max Wind Speed 23 mph    
Max Gust Speed 31 mph    
Visibility 10 miles    
Events Rain    
T = Trace of Precipitation, MM = Missing Value Source: NWS Daily Summary

Daily Weather History Graph

Daily Weather History Graph

Search for Another Location

Airport or City:

Trip Planner

Search our weather history database for the weather conditions in past years. The results will help you decide how hot, cold, wet, or windy it might be!

Date:

Astronomy

Oct. 16, 2012 Rise Set
Actual Time 7:05 AM EDT 6:09 PM EDT
Civil Twilight 6:37 AM EDT 6:37 PM EDT
Nautical Twilight 6:05 AM EDT 7:09 PM EDT
Astronomical Twilight 5:33 AM EDT 7:40 PM EDT
Moon 8:25 AM EDT (10/16) 6:51 PM EDT (10/16)
Length of Visible Light 11h 59m
Length of Day
11h 04m
New Moon, 2% of the Moon is Illuminated
Oct 16
New Moon
Oct 21
First Quarter
Oct 29
Full
Nov 6
Last Quarter
Nov 13
New

Hourly Weather History & Observations

Time (EDT) Temp. Windchill Dew Point Humidity Pressure Visibility Wind Dir Wind Speed Gust Speed Precip Events Conditions
12:56 AM 59.0 °F - 57.0 °F 93% 29.64 in 10.0 mi SW 6.9 mph - 0.01 in Rain Light Rain
1:56 AM 59.0 °F - 55.0 °F 87% 29.63 in 10.0 mi WNW 6.9 mph - 0.00 in Rain Light Rain
2:56 AM 57.9 °F - 54.0 °F 87% 29.62 in 10.0 mi WNW 10.4 mph - 0.00 in   Overcast
3:24 AM 57.2 °F - 53.6 °F 88% 29.62 in 10.0 mi NW 12.7 mph - N/A   Overcast
3:56 AM 57.9 °F - 52.0 °F 81% 29.61 in 10.0 mi NW 16.1 mph 23.0 mph N/A   Overcast
4:56 AM 55.9 °F - 46.0 °F 69% 29.64 in 10.0 mi NW 13.8 mph 23.0 mph N/A   Mostly Cloudy
5:56 AM 53.1 °F - 43.0 °F 69% 29.65 in 10.0 mi NW 11.5 mph - N/A   Partly Cloudy
7:56 AM 52.0 °F - 39.0 °F 61% 29.72 in 10.0 mi WNW 15.0 mph - N/A   Scattered Clouds
8:56 AM 54.0 °F - 37.0 °F 53% 29.73 in 10.0 mi NNW 15.0 mph 29.9 mph N/A   Partly Cloudy
9:56 AM 54.0 °F - 37.0 °F 53% 29.74 in 10.0 mi NW 18.4 mph 28.8 mph N/A   Partly Cloudy
10:56 AM 57.0 °F - 37.0 °F 47% 29.75 in 10.0 mi NNW 19.6 mph 25.3 mph N/A   Partly Cloudy
12:56 PM 59.0 °F - 36.0 °F 42% 29.74 in 10.0 mi WNW 12.7 mph 25.3 mph N/A   Partly Cloudy
1:56 PM 59.0 °F - 37.0 °F 44% 29.74 in 10.0 mi NW 17.3 mph 24.2 mph N/A   Partly Cloudy
2:56 PM 60.1 °F - 36.0 °F 41% 29.74 in 10.0 mi NW 13.8 mph 24.2 mph N/A   Partly Cloudy
3:56 PM 61.0 °F - 37.0 °F 41% 29.75 in 10.0 mi NW 13.8 mph 20.7 mph N/A   Partly Cloudy
4:56 PM 59.0 °F - 36.0 °F 42% 29.76 in 10.0 mi NW 13.8 mph 19.6 mph N/A   Clear
5:56 PM 55.9 °F - 37.0 °F 49% 29.79 in 10.0 mi WNW 9.2 mph - N/A   Partly Cloudy
6:56 PM 52.0 °F - 37.9 °F 59% 29.81 in 10.0 mi WNW 5.8 mph - N/A   Partly Cloudy
7:56 PM 50.0 °F - 37.9 °F 63% 29.84 in 10.0 mi WNW 5.8 mph - N/A   Partly Cloudy
8:56 PM 48.0 °F - 37.9 °F 68% 29.86 in 10.0 mi WNW 5.8 mph - N/A   Partly Cloudy
9:56 PM 48.0 °F - 37.9 °F 68% 29.87 in 10.0 mi WNW 6.9 mph - N/A   Clear
10:56 PM 48.0 °F - 37.0 °F 66% 29.88 in 10.0 mi Calm Calm - N/A   Clear
11:56 PM 44.1 °F 40.1 °F 37.9 °F 79% 29.89 in 10.0 mi NNW 6.9 mph - N/A   Clear